Hatteras, NC

12:23 AM EST on December 10, 2019 (GMT -0500)
Mitchell

Weather History for KHSE - October, 2019

Change the Weather History Date:

Tuesday, October 22, 2019

  Actual Average Record
Temperature  
Mean Temperature 69 °F 64 °F  
Max Temperature 76 °F 70 °F 82 °F (1990)
Min Temperature 62 °F 58 °F 38 °F (1974)
Degree Days  
Heating Degree Days 0 3  
Month to date heating degree days 16 37  
Since 1 July heating degree days 16 40  
Cooling Degree Days 4 2  
Month to date cooling degree days 57 83  
Year to date cooling degree days 2135 1675  
Growing Degree Days 19 (Base 50)    
Moisture  
Dew Point 66 °F    
Average Humidity 91    
Maximum Humidity 100    
Minimum Humidity 78    
Precipitation  
Precipitation T in 0.19 in 2.44 in (1893)
Month to date precipitation 5.40 3.85  
Year to date precipitation 47.26 47.29  
Snow  
Snow 0.00 in - - ()
Month to date snowfall 0.0  
Since 1 July snowfall 0.0  
Snow Depth 0.00 in    
Sea Level Pressure  
Sea Level Pressure 29.95 in    
Wind  
Wind Speed 6 mph ()    
Max Wind Speed 17 mph    
Max Gust Speed 24 mph    
Visibility 9.4 miles    
Events      
T = Trace of Precipitation, MM = Missing Value Source: Averaged Metar Reports

Daily Weather History Graph

Daily Weather History Graph

Search for Another Location

Airport or City:

Astronomy

Oct. 22, 2019 Rise Set
Actual Time 7:14 AM EDT 6:18 PM EDT
Civil Twilight 6:48 AM EDT 6:44 PM EDT
Nautical Twilight 6:18 AM EDT 7:14 PM EDT
Astronomical Twilight 5:49 AM EDT 7:43 PM EDT
Moon 12:40 AM EDT (10/22) 3:09 PM EDT (10/22)
Length of Visible Light 11h 56m
Length of Day
11h 04m
Last Quarter, 37% of the Moon is Illuminated
Oct 22
Last Quarter
Oct 27
New
Nov 4
First Quarter
Nov 12
Full
Nov 19
Last Quarter

Hourly Weather History & Observations

Time (EDT) Temp. Dew Point Humidity Pressure Visibility Wind Dir Wind Speed Gust Speed Precip Events Conditions
12:51 AM 63.0 °F 61.0 °F 93% 30.08 in 10.0 mi NNW 3.5 mph - N/A   Overcast
1:51 AM 63.0 °F 60.1 °F 90% 30.07 in 10.0 mi Variable 3.5 mph - N/A   Overcast
2:51 AM 63.0 °F 61.0 °F 93% 30.05 in 10.0 mi NNW 4.6 mph - N/A   Overcast
3:51 AM 63.0 °F 61.0 °F 93% 30.05 in 10.0 mi NW 3.5 mph - N/A   Overcast
4:51 AM 63.0 °F 61.0 °F 93% 30.05 in 10.0 mi NW 5.8 mph - N/A   Overcast
5:51 AM 62.1 °F 60.1 °F 93% 30.03 in 10.0 mi Variable 3.5 mph - N/A   Mostly Cloudy
6:01 AM 62.1 °F 60.1 °F 93% 30.02 in 10.0 mi NNE 4.6 mph - N/A   Scattered Clouds
6:51 AM 62.1 °F 61.0 °F 96% 30.01 in 10.0 mi Variable 5.8 mph - N/A   Clear
7:51 AM 62.1 °F 61.0 °F 96% 30.00 in 10.0 mi NNE 5.8 mph - N/A   Clear
8:51 AM 64.9 °F 62.1 °F 90% 30.01 in 10.0 mi Variable 4.6 mph - N/A   Clear
9:51 AM 70.0 °F 64.0 °F 81% 30.01 in 10.0 mi ESE 6.9 mph - N/A   Clear
10:51 AM 72.0 °F 64.9 °F 78% 30.00 in 10.0 mi ESE 6.9 mph - N/A   Clear
11:51 AM 73.9 °F 66.9 °F 79% 29.98 in 10.0 mi ESE 9.2 mph - N/A   Partly Cloudy
12:51 PM 73.0 °F 68.0 °F 84% 29.95 in 10.0 mi ESE 12.7 mph - N/A   Overcast
1:51 PM 73.9 °F 69.1 °F 85% 29.91 in 10.0 mi ESE 9.2 mph - N/A   Overcast
2:51 PM 75.9 °F 69.1 °F 79% 29.89 in 10.0 mi SSE 9.2 mph - 0.00 in   Overcast
3:51 PM 73.9 °F 70.0 °F 87% 29.86 in 10.0 mi SSE 11.5 mph 18.4 mph N/A   Overcast
4:44 PM 73.9 °F 71.1 °F 91% 29.86 in 10.0 mi SSE 16.1 mph - N/A   Overcast
4:51 PM 73.9 °F 71.1 °F 91% 29.86 in 10.0 mi SSE 15.0 mph 21.9 mph N/A   Overcast
5:51 PM 73.9 °F 72.0 °F 93% 29.84 in 10.0 mi SSE 15.0 mph - N/A   Overcast
6:51 PM 73.0 °F 73.0 °F 100% 29.84 in 10.0 mi SSE 12.7 mph - N/A   Overcast
8:51 PM 73.9 °F 73.9 °F 100% 29.85 in 8.0 mi SSW 9.2 mph - N/A   Mostly Cloudy
10:06 PM 73.9 °F 73.9 °F 100% 29.86 in 6.0 mi SW 9.2 mph - N/A   Mostly Cloudy
10:51 PM 73.0 °F 73.0 °F 100% 29.86 in 6.0 mi WSW 12.7 mph - N/A   Scattered Clouds
11:51 PM 73.0 °F 73.0 °F 100% 29.86 in 5.0 mi WSW 9.2 mph - N/A   Scattered Clouds